This is the latest recevied weather packets stored in our database for station/object KA3MCG-13. If no packets are shown the sender has not sent any weather packets the latest 10 day(s).
| Time | Temp. | Humidity | Pressure | Rain* | Wind** | Luminosity | Snow |
|---|---|---|---|---|---|---|---|
| 1777678217 | 15° C | 57% | 1009.4 hPa | 0 mm | - | 25 W/m² | - |
| 1777669217 | 18.33° C | 41% | 1008.9 hPa | 0 mm | - | 654 W/m² | - |
| 1777667417 | 17.22° C | 42% | 1009.5 hPa | 0 mm | - | 500 W/m² | - |
| 1777636816 | 7.22° C | 81% | 1014.2 hPa | 0 mm | - | 39 W/m² | - |
| 1777635016 | 5.56° C | 87% | 1014.4 hPa | 0 mm | - | 29 W/m² | - |
| 1777615216 | 4.44° C | 87% | 1013.4 hPa | 0 mm | - | 0 W/m² | - |
| 1777613416 | 5° C | 85% | 1013.4 hPa | 0 mm | - | 0 W/m² | - |
| 1777604437 | 6.67° C | 80% | 1012.9 hPa | 0 mm | - | 0 W/m² | - |
| 1777602637 | 7.22° C | 79% | 1012.9 hPa | 0 mm | - | 0 W/m² | - |
| 1777579217 | 15.56° C | 55% | 1008.2 hPa | 0 mm | - | 390 W/m² | - |
| 1777577417 | 16.67° C | 55% | 1008 hPa | 0 mm | - | 735 W/m² | - |
| 1777564837 | 16.11° C | 57% | 1008.4 hPa | 0 mm | - | 850 W/m² | - |
| 1777563037 | 15.56° C | 60% | 1008.3 hPa | 0 mm | - | 897 W/m² | - |
| 1777539636 | 11.11° C | 92% | 1007.5 hPa | 0 mm | - | 0 W/m² | - |
| 1777537837 | 11.67° C | 92% | 1007 hPa | 0 mm | - | 0 W/m² | - |
| 1777521616 | 12.22° C | 93% | 1006.8 hPa | 0 mm | - | 0 W/m² | - |
| 1777519816 | 12.78° C | 93% | 1006.7 hPa | 0.25 mm | - | 0 W/m² | - |
| 1777507215 | 13.33° C | 93% | 1006 hPa | 1.78 mm | - | 0 W/m² | - |
| 1777505416 | 13.33° C | 93% | 1006.3 hPa | 0.76 mm | - | 0 W/m² | - |
| 1777482037 | 12.22° C | 89% | 1011.2 hPa | 0 mm | - | 128 W/m² | - |
| 1777480238 | 12.22° C | 89% | 1011.7 hPa | 0 mm | - | 99 W/m² | - |
| 1777471217 | 12.22° C | 85% | 1012.9 hPa | 0 mm | - | 80 W/m² | - |
| 1777469417 | 12.22° C | 84% | 1013.3 hPa | 0 mm | - | 68 W/m² | - |
| 1777464017 | 11.67° C | 86% | 1013.7 hPa | 0 mm | - | 37 W/m² | - |
| 1777462218 | 11.67° C | 86% | 1013.6 hPa | 0 mm | - | 21 W/m² | - |
* Rain latest hour (hover to see other rain measurements)
** Current wind speed in m/s (hover to see current wind gust speed)